Terminal Aerodrome Forecast
Issued by NWS

Home | Current Version | Previous Version | Text Only | Print | Product List | Glossary On
Versions: 1 2 3 4 5 6 7 8 9 10 11 12 13 14
000
FTUS42 KMHX 260500
TAFPGV
TAF
KPGV 260537Z 2606/2706 24004KT P6SM SKC
     FM261400 33010G20KT P6SM SKC
     FM270000 29003KT P6SM SKC
      AMD LTD TO CLD VIS AND WIND=

USA.gov is the U.S. government's official web portal to all federal, state and local government web resources and services.